This demonstration page uses our WeatherBlox Daily Observations layout. Learn more.

Left ArrowRight Arrow

Hourly Observations for April 3, 2018

Temp ( °F °C ) Dew Point ( °F °C ) Humidity (%) Winds ( mph kmh ) Pressure ( in mb ) Visibility ( mi km ) Precip ( " mm )
12:53 am 00:53 Clear 58 14.4 15 -9.4 18 18 NNW 8 13 29.92 1013 10 16 0.00 0.00
1:53 am 01:53 Clear 58 14.4 16 -8.9 19 19 N 12 19 29.91 1013 10 16 0.00 0.00
2:53 am 02:53 Clear 56 13.3 17 -8.3 22 22 NNW 8 13 29.91 1013 10 16 0.00 0.00
3:53 am 03:53 Clear 51 10.6 22 -5.6 32 32 NW 6 9 29.92 1013 10 16 0.00 0.00
4:53 am 04:53 Clear 51 10.6 21 -6.1 31 31 NNW 6 9 29.91 1013 10 16 0.00 0.00
5:53 am 05:53 Clear 50 10 22 -5.6 33 33 NW 6 9 29.92 1013 10 16 0.00 0.00
6:53 am 06:53 Sunny 47 8.3 25 -3.9 42 42 NW 6 9 29.93 1014 10 16 0.00 0.00
7:53 am 07:53 Sunny 49 9.4 27 -2.8 43 43 NW 5 7 29.94 1014 10 16 0.00 0.00
8:53 am 08:53 Sunny 57 13.9 27 -2.8 32 32 N 6 9 29.95 1014 10 16 0.00 0.00
9:53 am 09:53 Sunny 63 17.2 25 -3.9 24 24 NNE 6 9 29.96 1014 10 16 0.00 0.00
10:53 am 10:53 Sunny 66 18.9 25 -3.9 21 21 ENE 6 9 29.96 1015 10 16 0.00 0.00
11:53 am 11:53 Sunny 68 20 23 -5 18 18 VRB 3 6 29.96 1014 10 16 0.00 0.00
12:53 pm 12:53 Sunny 71 21.7 23 -5 16 16 Calm 29.95 1014 10 16 0.00 0.00
1:53 pm 13:53 Sunny 73 22.8 28 -2.2 19 19 SE 5 7 29.94 1014 10 16 0.00 0.00
2:53 pm 14:53 Sunny 74 23.3 29 -1.7 19 19 SSE 7 11 29.92 1013 10 16 0.00 0.00
3:53 pm 15:53 Sunny 75 23.9 31 -0.6 20 20 SSW 10 17 29.91 1013 10 16 0.00 0.00
4:53 pm 16:53 Sunny 75 23.9 33 0.6 22 22 S 10 17 29.90 1013 10 16 0.00 0.00
5:53 pm 17:53 Sunny 74 23.3 32 0 21 21 S 9 15 29.90 1013 10 16 0.00 0.00
6:53 pm 18:53 Sunny 72 22.2 33 0.6 24 24 SSW 7 11 29.91 1013 10 16 0.00 0.00
7:53 pm 19:53 Clear 68 20 36 2.2 31 31 Calm 29.91 1013 10 16 0.00 0.00
8:53 pm 20:53 Clear 63 17.2 42 5.6 47 47 E 3 6 29.93 1014 10 16 0.00 0.00
9:53 pm 21:53 Clear 63 17.2 39 3.9 41 41 N 3 6 29.96 1014 10 16 0.00 0.00
10:53 pm 22:53 Clear 61 16.1 43 6.1 52 52 NE 3 6 29.96 1015 10 16 0.00 0.00
11:53 pm 23:53 Clear 58 14.4 44 6.7 60 60 W 3 6 29.97 1015 8 13 0.00 0.00

Powered by AerisWeather